sat.trackr.live / text

‹ back to catalog

TIANMU-1 13

NORAD 58647 · 2023-205C

PAYLOAD ACTIVE UNKNOWN

§ Identity

Operator
Country
PRC
Launch date
2023-12-25
Launch site
JSC
Launch vehicle
Mass (kg)
RCS (m²)

Purposes: earth_obs

External: N2YO · Heavens-Above · Gunter

§ Orbital elements

Epoch: 2026-05-25T04:21:02.270592Z

Period
94.33 min
Inclination
97.3477°
Eccentricity
0.0008514
Mean motion
15.26528939 rev/d
Perigee alt
480.4 km
Apogee alt
492.0 km
Semi-major
6,864.3 km
B*
2.1225e-4
RAAN
167.1327°
Arg perigee
58.2389°
Mean anomaly
301.9678°
Rev number
13,399

§ Raw data

TIANMU-1 131 58647U 23205C   26145.18127628  .00005477  00000+0  21225-3 0  99922 58647  97.3477 167.1327 0008514  58.2389 301.9678 15.26528939133998

JSON: /api/v1/satellites/58647 · /tle

For live sub-satellite position, see the globe view (requires WebGL).

§ Visibility from observer

Set your observer location to see the next 7 days of passes ≥ 10°. The values pass through the URL so the page stays shareable.

No JS? Fill the form by hand. The geolocation button needs JavaScript.